N806BG LLHZ-LLHZ

Flight info

Callsign N806BG
Flight time 0h 0m
Altitude 200
Route LLHZ BZRA AZAM BOBLEHRZIM LLHZ
Aircraft R66/L-V/N

Departure

Time 2026-04-24 20:58
Airport Herzliya Airport (LLHZ)

Arrival

Time 2026-04-24 20:58
Airport Herzliya Airport (LLHZ)
Time Latitude Longitude Altitude Speed Heading
2026-04-24 20:44 32.18116 34.82941 95 ft 0 kts 20°
2026-04-24 20:50 32.18119 34.82942 98 ft 0 kts 24°
2026-04-24 20:51 32.18122 34.82939 98 ft 0 kts 35°
2026-04-24 20:51 32.18119 34.82939 98 ft 1 kts 52°
2026-04-24 20:52 32.18116 34.82939 95 ft 0 kts 87°
2026-04-24 20:53 32.18118 34.82941 97 ft 2 kts 62°
2026-04-24 20:53 32.18128 34.82951 99 ft 7 kts 56°
2026-04-24 20:53 32.18158 34.82975 99 ft 5 kts 47°
2026-04-24 20:53 32.18100 34.83165 283 ft 43 kts 103°
2026-04-24 20:54 32.17981 34.83624 531 ft 54 kts 89°
2026-04-24 20:54 32.18127 34.83894 465 ft 42 kts 32°
2026-04-24 20:54 32.18353 34.84113 374 ft 40 kts 37°
2026-04-24 20:54 32.18563 34.84286 398 ft 28 kts 31°
2026-04-24 20:55 32.18783 34.84489 473 ft 54 kts 40°
2026-04-24 20:55 32.19084 34.84841 565 ft 67 kts 46°
2026-04-24 20:55 32.19454 34.85220 451 ft 69 kts 36°
2026-04-24 20:55 32.19750 34.85580 464 ft 52 kts 53°
2026-04-24 20:56 32.19831 34.85995 420 ft 50 kts 72°
2026-04-24 20:56 32.19845 34.86483 388 ft 70 kts 82°
2026-04-24 20:56 32.20068 34.86986 391 ft 75 kts 36°
2026-04-24 20:56 32.20513 34.87282 331 ft 72 kts 25°
2026-04-24 20:57 32.20940 34.87574 316 ft 68 kts 30°
2026-04-24 20:57 32.21286 34.87923 497 ft 65 kts 41°
2026-04-24 20:57 32.21663 34.88232 622 ft 70 kts 40°
2026-04-24 20:57 32.22075 34.88497 487 ft 71 kts
2026-04-24 20:58 32.22530 34.88516 337 ft 64 kts 18°
2026-04-24 20:58 32.22823 34.88750 591 ft 49 kts 48°
2026-04-24 20:58 32.23219 34.88999 782 ft 66 kts 14°
2026-04-24 20:58 32.23449 34.89038 1110 ft 31 kts 63°
2026-04-24 20:59 32.23466 34.89317 284 ft 56 kts 48°
2026-04-24 20:59 32.23579 34.89481 721 ft 24 kts 53°
2026-04-24 20:59 32.23773 34.89554 618 ft 39 kts 18°
2026-04-24 20:59 32.24054 34.89512 463 ft 48 kts 342°
2026-04-24 21:00 32.24277 34.89256 312 ft 37 kts 323°
2026-04-24 21:00 32.24409 34.89067 169 ft 27 kts 332°
2026-04-24 21:00 32.24532 34.88942 117 ft 20 kts 341°
2026-04-24 21:00 32.24591 34.88892 89 ft 2 kts 347°
2026-04-24 21:01 32.24708 34.88904 215 ft 50 kts 21°
2026-04-24 21:01 32.25154 34.89046 216 ft 87 kts
2026-04-24 21:01 32.25622 34.89107 210 ft 46 kts
2026-04-24 21:01 32.25956 34.89193 201 ft 66 kts 14°
2026-04-24 21:02 32.26419 34.89263 255 ft 53 kts 360°
2026-04-24 21:02 32.26808 34.89381 234 ft 72 kts 23°
2026-04-24 21:02 32.27161 34.89423 412 ft 67 kts 15°
2026-04-24 21:02 32.27574 34.89584 321 ft 57 kts 24°
2026-04-24 21:03 32.27786 34.89711 651 ft 40 kts 38°
2026-04-24 21:03 32.28124 34.89786 574 ft 60 kts 359°
2026-04-24 21:03 32.28504 34.89722 312 ft 32 kts 357°
2026-04-24 21:03 32.28689 34.89743 200 ft 21 kts
2026-04-24 21:04 32.28855 34.89812 224 ft 22 kts 17°
2026-04-24 21:04 32.28884 34.89826 151 ft 1 kts 12°
2026-04-24 21:04 32.28887 34.89826 141 ft 0 kts 11°
2026-04-24 21:07 32.28880 34.89821 172 ft 6 kts 14°
2026-04-24 21:07 32.28971 34.89846 501 ft 42 kts 22°
2026-04-24 21:08 32.29375 34.89933 598 ft 74 kts 20°
2026-04-24 21:08 32.29905 34.89845 569 ft 88 kts 355°
2026-04-24 21:08 32.30544 34.89932 349 ft 91 kts 40°
2026-04-24 21:08 32.30897 34.90133 328 ft 38 kts 348°
2026-04-24 21:09 32.31073 34.90058 387 ft 15 kts
2026-04-24 21:09 32.31195 34.90075 481 ft 19 kts
2026-04-24 21:09 32.31304 34.90066 292 ft 1 kts
2026-04-24 21:09 32.31384 34.90121 290 ft 52 kts 21°
2026-04-24 21:10 32.31663 34.90505 422 ft 62 kts 63°
2026-04-24 21:10 32.31910 34.91034 383 ft 82 kts 61°
2026-04-24 21:10 32.32340 34.91477 395 ft 78 kts 24°
2026-04-24 21:10 32.32857 34.91765 493 ft 86 kts 14°
2026-04-24 21:11 32.33339 34.92196 407 ft 98 kts 51°
2026-04-24 21:11 32.33383 34.93076 267 ft 110 kts 88°
2026-04-24 21:11 32.33367 34.93939 217 ft 108 kts 81°
2026-04-24 21:11 32.33417 34.94703 211 ft 78 kts 88°
2026-04-24 21:12 32.33388 34.95247 148 ft 51 kts 82°
2026-04-24 21:12 32.33343 34.95455 132 ft 39 kts 87°
2026-04-24 21:12 32.33248 34.95966 176 ft 51 kts 88°
2026-04-24 21:12 32.33292 34.96353 133 ft 27 kts 92°
2026-04-24 21:13 32.33132 34.96676 215 ft 70 kts 136°
2026-04-24 21:13 32.32682 34.96349 312 ft 86 kts 216°
2026-04-24 21:13 32.32107 34.96419 330 ft 92 kts 157°
2026-04-24 21:13 32.31763 34.96593 267 ft 68 kts 147°
2026-04-24 21:14 32.31538 34.96742 98 ft 16 kts 143°
2026-04-24 21:14 32.31381 34.96874 112 ft 38 kts 132°
2026-04-24 21:14 32.31240 34.97106 98 ft 20 kts 120°
2026-04-24 21:14 32.31170 34.97220 104 ft 27 kts 121°
2026-04-24 21:15 32.31020 34.97467 119 ft 32 kts 116°
2026-04-24 21:15 32.30934 34.97612 123 ft 15 kts 118°
2026-04-24 21:15 32.30876 34.97756 178 ft 26 kts 110°
2026-04-24 21:15 32.30863 34.97832 111 ft 1 kts 120°
2026-04-24 21:16 32.30863 34.97833 110 ft 0 kts 120°
2026-04-24 21:16 32.30955 34.97888 158 ft 30 kts 47°
2026-04-24 21:16 32.31193 34.97954 183 ft 30 kts 31°
2026-04-24 21:16 32.31428 34.98033 213 ft 40 kts 28°
2026-04-24 21:17 32.31709 34.98226 274 ft 47 kts 31°
2026-04-24 21:17 32.32052 34.98393 282 ft 67 kts 24°
2026-04-24 21:17 32.32441 34.98747 355 ft 76 kts 46°
2026-04-24 21:17 32.32842 34.98965 550 ft 49 kts 20°
2026-04-24 21:18 32.33216 34.98877 309 ft 61 kts 330°
2026-04-24 21:18 32.33470 34.98667 153 ft 26 kts 334°
2026-04-24 21:18 32.33579 34.98522 159 ft 16 kts 342°
2026-04-24 21:18 32.33589 34.98514 118 ft 0 kts 348°
2026-04-24 21:23 32.33642 34.98404 168 ft 38 kts 314°
2026-04-24 21:24 32.33827 34.97941 473 ft 75 kts 294°
2026-04-24 21:24 32.34064 34.97343 625 ft 100 kts 322°
2026-04-24 21:24 32.34525 34.96807 726 ft 73 kts 302°
2026-04-24 21:24 32.34391 34.96537 352 ft 43 kts 128°
2026-04-24 21:25 32.34447 34.96706 129 ft 20 kts
2026-04-24 21:25 32.34566 34.96674 92 ft 9 kts 11°
2026-04-24 21:25 32.34627 34.96627 103 ft 6 kts 301°
2026-04-24 21:25 32.34644 34.96623 72 ft 3 kts 317°
2026-04-24 21:26 32.34603 34.96606 92 ft 10 kts 336°
2026-04-24 21:26 32.34560 34.96584 101 ft 2 kts 316°
2026-04-24 21:26 32.34557 34.96580 77 ft 1 kts 325°
2026-04-24 21:26 32.34553 34.96568 78 ft 2 kts 329°
2026-04-24 21:27 32.34552 34.96568 73 ft 0 kts 329°
2026-04-24 21:28 32.34561 34.96572 83 ft 8 kts 333°
2026-04-24 21:28 32.34615 34.96594 86 ft 12 kts 343°
2026-04-24 21:28 32.34649 34.96603 111 ft 8 kts 351°
2026-04-24 21:28 32.34732 34.96455 214 ft 43 kts 285°
2026-04-24 21:29 32.34725 34.95957 256 ft 63 kts 257°
2026-04-24 21:29 32.34537 34.95434 287 ft 83 kts 254°
2026-04-24 21:29 32.34336 34.94713 225 ft 96 kts 255°
2026-04-24 21:29 32.34327 34.93944 120 ft 83 kts 302°
2026-04-24 21:30 32.34507 34.93532 413 ft 40 kts 309°
2026-04-24 21:30 32.34551 34.93195 562 ft 44 kts 274°
2026-04-24 21:30 32.34460 34.92699 488 ft 72 kts 247°
2026-04-24 21:30 32.34074 34.92134 272 ft 92 kts 245°
2026-04-24 21:31 32.33837 34.91521 123 ft 93 kts 247°
2026-04-24 21:31 32.33635 34.91197 69 ft 0 kts 245°
2026-04-24 21:32 32.33559 34.91061 138 ft 42 kts 219°
2026-04-24 21:32 32.33335 34.90713 512 ft 61 kts 215°
2026-04-24 21:32 32.32820 34.90436 580 ft 95 kts 216°
2026-04-24 21:32 32.32385 34.89794 357 ft 103 kts 257°
2026-04-24 21:33 32.32252 34.89010 317 ft 106 kts 261°
2026-04-24 21:33 32.31663 34.88446 348 ft 126 kts 206°
2026-04-24 21:33 32.30829 34.88071 307 ft 116 kts 208°
2026-04-24 21:33 32.30098 34.87585 418 ft 130 kts 212°
2026-04-24 21:34 32.29403 34.86933 584 ft 123 kts 198°
2026-04-24 21:34 32.28539 34.86826 517 ft 132 kts 171°
2026-04-24 21:34 32.27644 34.86737 346 ft 124 kts 192°
2026-04-24 21:34 32.26807 34.86474 293 ft 109 kts 180°
2026-04-24 21:35 32.25961 34.86613 237 ft 132 kts 171°
2026-04-24 21:35 32.25114 34.86896 296 ft 127 kts 153°
2026-04-24 21:35 32.24289 34.86901 303 ft 114 kts 191°
2026-04-24 21:35 32.23503 34.86852 331 ft 120 kts 200°
2026-04-24 21:36 32.22895 34.86209 246 ft 115 kts 235°
2026-04-24 21:36 32.22418 34.85506 317 ft 111 kts 235°
2026-04-24 21:36 32.21840 34.84943 401 ft 108 kts 215°
2026-04-24 21:36 32.21187 34.84449 323 ft 112 kts 211°
2026-04-24 21:37 32.20488 34.83972 350 ft 117 kts 211°
2026-04-24 21:37 32.19738 34.83583 387 ft 121 kts 202°
2026-04-24 21:37 32.19017 34.83303 484 ft 97 kts 182°
2026-04-24 21:37 32.18438 34.83259 351 ft 64 kts 184°
2026-04-24 21:38 32.18181 34.83180 215 ft 27 kts 214°
2026-04-24 21:38 32.18124 34.83063 98 ft 7 kts 236°
2026-04-24 21:38 32.18146 34.82985 130 ft 19 kts 292°
2026-04-24 21:38 32.18122 34.82920 110 ft 3 kts 306°
2026-04-24 21:39 32.18124 34.82922 95 ft 0 kts 326°
2026-04-24 21:39 32.18125 34.82922 95 ft 0 kts 338°